Weather History for Charlotte, MI

Change the Weather History Date:

Wednesday, February 27, 2013

  Actual Average (KLAN) Record (KLAN)
Temperature  
Mean Temperature 34 °F 29 °F  
Max Temperature 36 °F 37 °F 64 °F (1867)
Min Temperature 32 °F 21 °F -20 °F (1994)
Degree Days  
Heating Degree Days 32 36  
Month to date heating degree days 1058  
Since 1 July heating degree days 4898  
Cooling Degree Days 0 0  
Month to date cooling degree days 0  
Year to date cooling degree days 0  
Moisture  
Dew Point 32 °F    
Average Humidity 98    
Maximum Humidity 100    
Minimum Humidity 89    
Precipitation  
Precipitation 0.34 in 0.07 in 0.67 in (1954)
Month to date precipitation 1.41  
Year to date precipitation 3.06  
Snow  
Snow 0.00 in 0.30 in 5.80 in (1954)
Month to date snowfall 11.2  
Since 1 July snowfall 41.8  
Snow Depth -    
Sea Level Pressure  
Sea Level Pressure 29.49 in    
Wind  
Wind Speed 1 mph (NNW)    
Max Wind Speed 5 mph    
Max Gust Speed -    
Visibility 3 miles    
Events Rain , Snow    
T = Trace of Precipitation, MM = Missing Value Source: NWS Daily Summary

Daily Weather History Graph

Daily Weather History Graph

Search for Another Location

Airport:

Trip Planner

Search our weather history database for the weather conditions in past years. The results will help you decide how hot, cold, wet, or windy it might be!

Date:

Astronomy

Feb. 27, 2013 Rise Set
Actual Time 7:17 AM EST 6:26 PM EST
Civil Twilight 6:49 AM EST 6:55 PM EST
Nautical Twilight 6:16 AM EST 7:27 PM EST
Astronomical Twilight 5:44 AM EST 8:00 PM EST
Moon 8:51 PM EST (2/27) 7:48 AM EST (2/27)
Length of Visible Light 12h 05m
Length of Day
11h 09m
Waning Gibbous, 96% of the Moon is Illuminated
Feb 27
Waning Gibbous
Mar 4
Last Quarter
Mar 11
New
Mar 19
First Quarter
Mar 27
Full

Hourly Weather History & Observations

Time (EST) Temp. Windchill Dew Point Humidity Pressure Visibility Wind Dir Wind Speed Gust Speed Precip Events Conditions
12:15 AM 32.2 °F 27.7 °F 32.0 °F 99% 29.46 in 5.0 mi NE 4.6 mph - N/A Rain Rain
12:35 AM 32.2 °F 27.7 °F 32.0 °F 99% 29.45 in 5.0 mi NE 4.6 mph - N/A Rain Light Rain
12:55 AM 32.2 °F 28.9 °F 32.0 °F 99% 29.45 in 7.0 mi NE 3.5 mph - N/A Rain Light Rain
1:15 AM 32.2 °F 28.9 °F 32.0 °F 99% 29.45 in 5.0 mi NE 3.5 mph - N/A   Light Drizzle
1:35 AM 32.2 °F 28.9 °F 32.0 °F 99% 29.45 in 4.0 mi NE 3.5 mph - N/A   Drizzle
1:55 AM 32.2 °F - 32.0 °F 99% 29.45 in 4.0 mi Calm Calm - N/A Rain Rain
2:15 AM 32.0 °F 28.7 °F 32.0 °F 100% 29.45 in 5.0 mi NNE 3.5 mph - N/A Rain Light Rain
2:35 AM 32.0 °F - 32.0 °F 100% 29.45 in 5.0 mi Calm Calm - N/A Rain Light Rain
2:55 AM 32.0 °F - 32.0 °F 100% 29.44 in 5.0 mi Calm Calm - N/A Rain Light Rain
3:15 AM 32.0 °F - 32.0 °F 100% 29.44 in 4.0 mi Calm Calm - N/A Rain Heavy Rain
3:35 AM 32.0 °F - 32.0 °F 100% 29.43 in 1.8 mi Calm Calm - N/A   Overcast
3:55 AM 32.0 °F - 32.0 °F 100% 29.43 in 2.5 mi Calm Calm - N/A Rain Heavy Rain
4:15 AM 32.0 °F - 32.0 °F 100% 29.43 in 4.0 mi Calm Calm - N/A Rain Heavy Rain
4:35 AM 32.0 °F - 32.0 °F 100% 29.43 in 4.0 mi Calm Calm - N/A Rain Heavy Rain
4:55 AM 32.0 °F - 32.0 °F 100% 29.43 in 4.0 mi Calm Calm - N/A Rain Light Rain
5:15 AM 32.0 °F - 32.0 °F 100% 29.43 in 5.0 mi Calm Calm - N/A Rain Light Rain
5:55 AM 32.0 °F - 32.0 °F 100% 29.44 in 5.0 mi Calm Calm - N/A Rain Light Rain
6:15 AM 32.0 °F - 32.0 °F 100% 29.44 in 5.0 mi Calm Calm - N/A Rain Light Rain
6:35 AM 32.0 °F - 32.0 °F 100% 29.44 in 5.0 mi Calm Calm - N/A Rain Light Rain
6:55 AM 32.0 °F - 32.0 °F 100% 29.44 in 5.0 mi Calm Calm - N/A Rain Light Rain
7:15 AM 32.0 °F - 32.0 °F 100% 29.45 in 4.0 mi Calm Calm - N/A Rain Light Rain
7:35 AM 32.0 °F - 32.0 °F 100% 29.45 in 3.0 mi Calm Calm - N/A Rain Light Rain
7:55 AM 32.0 °F - 32.0 °F 100% 29.46 in 3.0 mi Calm Calm - N/A Rain Light Rain
8:15 AM 32.0 °F - 32.0 °F 100% 29.46 in 3.0 mi Calm Calm - N/A   Overcast
8:35 AM 32.2 °F - 32.0 °F 99% 29.47 in 3.0 mi Calm Calm - N/A   Overcast
8:55 AM 34.7 °F - 33.1 °F 94% 29.47 in 2.5 mi Calm Calm - N/A Rain Rain
9:15 AM 34.3 °F - 32.7 °F 94% 29.47 in 1.8 mi Calm Calm - N/A   Overcast
9:35 AM 35.4 °F - 32.5 °F 89% 29.48 in 2.0 mi Calm Calm - N/A   Overcast
10:15 AM 35.6 °F - 32.9 °F 90% 29.48 in 1.8 mi Calm Calm - 0.04 in   Overcast
10:35 AM 34.0 °F - 33.3 °F 97% 29.48 in - Calm Calm - 0.12 in   Overcast
10:55 AM 33.8 °F - 32.4 °F 94% 29.48 in - Calm Calm - 0.17 in   Overcast
11:15 AM 34.9 °F - 33.1 °F 93% 29.48 in - Calm Calm - 0.03 in   Overcast
11:35 AM 33.1 °F - 32.5 °F 98% 29.49 in - Calm Calm - 0.04 in   Overcast
11:55 AM 32.9 °F - 32.4 °F 98% 29.49 in - Calm Calm - 0.08 in   Overcast
12:15 PM 35.8 °F - 33.6 °F 92% 29.49 in - Calm Calm - 0.02 in   Overcast
12:35 PM 33.8 °F 30.8 °F 32.2 °F 94% 29.49 in - SW 3.5 mph - 0.04 in   Overcast
12:55 PM 34.2 °F - 32.5 °F 94% 29.49 in - Calm Calm - 0.06 in   Overcast
1:13 PM 33.8 °F 30.8 °F 32.4 °F 94% 29.49 in - SW 3.5 mph - 0.01 in   Overcast
1:33 PM 33.8 °F 30.8 °F 32.4 °F 94% 29.49 in - SSW 3.5 mph - 0.01 in   Overcast
1:55 PM 33.8 °F - 32.4 °F 94% 29.49 in 4.0 mi Calm Calm - 0.01 in   Light Drizzle
2:15 PM 33.8 °F - 32.7 °F 96% 29.49 in 4.0 mi Calm Calm - N/A   Overcast
2:35 PM 34.0 °F 31.0 °F 32.5 °F 94% 29.49 in 4.0 mi WSW 3.5 mph - N/A   Overcast
2:55 PM 33.8 °F - 32.7 °F 96% 29.49 in 3.0 mi Calm Calm - N/A   Overcast
3:15 PM 33.8 °F 30.8 °F 32.9 °F 96% 29.49 in 3.0 mi SW 3.5 mph - N/A   Overcast
3:35 PM 33.8 °F 30.8 °F 32.9 °F 96% 29.50 in 3.0 mi SW 3.5 mph - N/A   Overcast
3:55 PM 33.8 °F - 32.9 °F 96% 29.50 in 4.0 mi Calm Calm - N/A   Overcast
4:15 PM 33.8 °F - 32.9 °F 96% 29.51 in 3.0 mi Calm Calm - N/A   Overcast
4:35 PM 33.8 °F - 32.9 °F 96% 29.51 in 3.0 mi Calm Calm - N/A   Overcast
4:55 PM 33.4 °F - 32.9 °F 98% 29.50 in 2.0 mi Calm Calm - N/A   Overcast
5:15 PM 33.6 °F - 33.1 °F 98% 29.51 in 1.8 mi Calm Calm - N/A   Overcast
5:35 PM 33.4 °F - 33.1 °F 99% 29.51 in 1.5 mi Calm Calm - N/A   Overcast
5:55 PM 33.1 °F - 32.9 °F 99% 29.52 in 1.2 mi Calm Calm - N/A   Light Drizzle
6:15 PM 33.1 °F - 32.9 °F 99% 29.52 in 1.2 mi Calm Calm - 0.01 in   Overcast
6:35 PM 33.4 °F - 33.1 °F 99% 29.53 in 1.2 mi Calm Calm - 0.01 in   Overcast
6:55 PM 32.9 °F - 32.4 °F 98% 29.53 in 1.8 mi Calm Calm - 0.01 in   Overcast
7:15 PM 32.5 °F - 32.4 °F 99% 29.53 in 2.0 mi Calm Calm - N/A   Overcast
7:35 PM 34.0 °F - 33.6 °F 99% 29.54 in 2.0 mi Calm Calm - N/A Rain Light Rain
7:55 PM 33.4 °F - 32.5 °F 96% 29.54 in 2.0 mi Calm Calm - N/A Snow Light Snow
8:15 PM 33.1 °F - 32.4 °F 97% 29.54 in 2.5 mi Calm Calm - N/A   Overcast
8:35 PM 32.9 °F - 32.4 °F 98% 29.54 in 2.5 mi Calm Calm - N/A   Overcast
9:15 PM 32.9 °F - 32.2 °F 97% 29.54 in 2.0 mi Calm Calm - N/A Snow Light Snow
9:35 PM 32.9 °F - 32.2 °F 97% 29.54 in 2.5 mi Calm Calm - N/A Snow Light Snow
9:55 PM 32.9 °F - 32.0 °F 96% 29.55 in 3.0 mi Calm Calm - N/A   Overcast
10:15 PM 32.4 °F - 32.0 °F 99% 29.55 in 2.0 mi Calm Calm - N/A Snow Light Snow
10:35 PM 32.4 °F 29.1 °F 32.0 °F 99% 29.55 in 2.5 mi NNW 3.5 mph - N/A   Overcast
10:55 PM 32.0 °F - 32.0 °F 100% 29.55 in 2.5 mi Calm Calm - 0.01 in   Overcast
11:15 PM 32.0 °F 28.7 °F 32.0 °F 100% 29.55 in 3.0 mi NNW 3.5 mph - N/A   Overcast
11:35 PM 32.2 °F 28.9 °F 32.0 °F 99% 29.55 in 3.0 mi NNW 3.5 mph - N/A   Overcast
11:55 PM 32.2 °F - 32.0 °F 99% 29.55 in 3.0 mi Calm Calm - N/A   Overcast